Wind_Speed
92 87 82 91 91 84 83 78 76 74 75 75 75 68 69 69 73 71 72 71 70 67 62 62 57 60 48 46 35 32 31 25 22 24 22 22 25 29 17 17 30 45 49 46
96 90 89 90 90 91 87 83 83 83 84 82 81 73 70 71 73 71 71 72 68 64 63 57 58 54 48 44 35 34 30 25 21 25 20 20 23 25 20 15 24 39 54 52
101 95 96 95 93 90 90 91 89 89 89 89 88 79 73 73 74 69 62 63 64 63 58 57 58 54 47 39 35 35 31 25 22 22 17 17 22 21 23 17 9 30 56 59
100 100 98 95 96 94 88 89 89 88 89 84 84 76 72 70 73 65 63 62 63 63 56 56 49 46 47 38 37 36 32 25 25 20 15 15 18 21 21 21 13 9 31 60
96 94 92 92 92 88 87 88 87 90 82 74 66 77 61 71 65 67 66 63 61 58 55 52 45 48 46 34 39 37 33 28 26 19 17 14 16 18 19 21 20 13 7 30
87 89 91 93 92 91 87 86 81 75 70 63 71 72 59 64 60 64 66 60 56 58 52 43 43 52 40 41 40 39 36 29 27 22 18 14 14 16 16 16 17 17 12 5
83 83 84 81 79 79 78 75 75 72 71 70 78 70 61 57 62 57 64 48 54 45 38 43 48 55 46 47 39 39 37 31 28 24 20 16 13 15 15 15 16 18 12 10
78 78 78 79 76 78 75 71 72 72 75 79 72 62 51 59 61 52 51 50 43 34 39 44 55 52 46 46 37 41 38 33 28 26 23 19 15 15 15 15 16 17 16 12
71 74 77 77 81 82 80 81 80 78 73 68 58 51 43 52 50 48 38 44 37 35 41 51 58 56 47 48 38 42 38 35 29 27 28 24 18 19 17 15 16 15 15 13
66 69 71 74 76 76 75 72 69 65 61 51 46 45 43 48 46 40 39 40 39 40 47 57 60 56 50 50 37 41 40 37 31 30 28 29 24 24 20 18 17 16 15 12
67 65 64 66 64 61 64 61 60 57 52 44 39 37 46 42 46 34 38 43 42 47 51 54 58 56 52 46 36 40 40 39 33 31 32 31 32 29 23 20 19 17 16 18
76 72 68 66 60 60 59 56 54 51 48 39 35 37 44 40 43 36 44 46 46 50 51 55 58 54 51 49 39 38 39 37 35 36 35 33 32 32 29 23 23 22 20 20
83 78 72 67 64 64 63 58 55 50 47 41 29 36 42 36 44 42 45 45 52 52 50 56 55 53 50 50 45 39 39 36 37 35 35 36 36 33 32 28 28 26 24 22
78 78 74 71 68 67 64 62 59 53 47 40 33 36 40 38 53 48 50 50 56 53 52 55 53 48 48 46 46 43 41 40 40 41 44 41 39 34 33 35 34 31 28 27
72 73 76 77 72 68 66 66 56 50 44 37 33 37 41 48 55 51 55 52 57 59 54 48 44 42 42 40 45 48 46 42 42 41 45 45 43 40 38 39 39 36 33 32
63 64 67 67 66 67 68 59 52 44 37 35 34 38 46 53 54 56 57 58 52 58 58 43 44 42 40 38 44 46 46 47 47 47 46 46 44 44 42 40 40 39 37 36
61 59 58 61 60 58 56 52 48 42 36 32 36 43 54 53 49 53 56 62 52 53 61 54 47 40 41 45 46 50 52 53 52 48 48 46 43 45 46 44 45 44 42 42
61 59 57 58 56 56 53 47 44 40 34 33 41 52 55 49 45 50 61 54 56 51 54 60 62 59 51 47 46 49 51 51 52 50 48 48 49 51 51 51 49 48 48 46
56 56 57 57 55 54 50 46 44 39 36 38 45 57 55 55 56 48 51 57 53 60 59 58 62 60 53 59 57 54 52 52 50 50 50 52 53 52 53 54 53 51 52 53
50 52 53 52 52 51 52 48 45 42 40 41 49 52 59 58 57 57 55 59 61 60 65 64 61 62 56 52 57 60 56 54 52 53 53 54 52 52 55 57 57 56 58 57
47 48 50 47 48 50 52 48 43 41 44 46 53 51 59 63 65 62 66 68 65 66 66 70 68 71 66 65 64 66 67 62 59 59 59 57 58 57 60 62 62 62 61 63
45 46 46 44 47 51 47 44 41 43 47 53 57 56 60 69 73 71 74 77 75 68 67 68 71 74 73 73 70 68 66 65 67 64 64 65 64 64 64 66 67 69 69 69
43 44 45 46 48 50 47 45 41 46 52 60 64 64 66 69 73 78 84 84 82 77 73 69 63 67 73 69 73 77 71 70 70 68 69 71 69 70 73 74 75 77 78 78
42 44 46 46 49 50 46 45 44 49 54 65 73 71 70 73 77 78 79 82 85 82 80 75 70 72 72 70 76 73 76 73 76 76 74 73 74 75 76 77 82 83 79 76
46 47 49 52 50 50 45 42 47 51 56 65 76 80 79 78 78 79 85 80 79 84 85 82 81 77 78 79 81 83 84 80 79 78 79 80 81 83 84 84 83 83 82 83
48 51 54 55 49 50 49 46 48 49 59 62 75 85 86 83 82 81 77 80 80 80 84 87 86 83 85 84 84 85 87 89 89 90 90 90 91 92 90 89 87 85 87 88
Wind_Direction
245 245 248 249 248 251 252 254 253 255 259 262 268 269 273 275 278 278 277 278 279 280 279 281 277 281 275 257 247 242 243 248 262 276 292 310 327 331 329 282 229 209 206 212
243 243 246 249 251 251 250 251 253 254 257 261 265 270 272 277 280 276 274 273 273 276 278 276 277 276 262 247 238 234 236 241 257 270 288 305 324 331 347 327 232 215 208 208
242 243 245 248 250 252 254 253 255 259 263 268 267 269 272 276 282 274 271 271 273 274 272 271 272 267 246 232 229 227 230 236 251 266 283 302 315 339 1 355 287 221 212 211
243 244 246 248 250 252 255 257 257 259 263 270 269 267 271 274 280 273 268 268 271 273 270 269 266 247 231 219 224 224 225 231 246 258 270 295 311 331 348 1 5 276 225 216
244 245 247 250 252 256 258 261 261 261 266 267 268 268 265 277 272 265 267 271 275 269 264 261 249 227 222 213 220 222 222 225 241 249 262 284 307 326 339 351 359 2 267 229
246 248 250 252 254 258 258 260 262 262 266 269 267 269 277 271 263 263 270 271 267 264 259 247 225 225 217 206 218 221 221 222 234 242 256 272 301 318 332 346 352 356 346 306
241 243 247 250 253 256 258 261 263 263 263 265 270 275 274 261 264 268 267 265 259 259 245 226 218 226 218 206 214 220 220 220 230 237 247 259 284 308 322 331 344 353 341 343
239 242 245 248 249 251 253 254 256 260 263 269 272 270 261 265 266 262 258 256 252 242 229 209 215 226 223 210 211 221 220 220 228 236 244 252 269 288 311 319 323 339 351 349
238 240 243 245 247 250 252 255 259 263 265 267 265 266 261 266 269 255 252 243 234 226 210 208 212 221 225 216 207 221 223 221 227 236 244 251 261 283 294 302 311 320 329 342
238 241 244 247 249 252 256 258 260 262 264 263 261 262 265 267 263 256 235 231 223 215 208 210 213 219 224 226 212 221 228 225 226 236 250 253 259 274 282 290 300 306 310 311
241 245 248 250 253 254 253 255 258 260 259 259 258 262 265 265 257 241 226 221 212 210 210 215 215 221 222 220 213 223 228 232 230 239 252 258 258 262 270 276 289 290 297 304
239 243 246 248 251 253 254 255 258 260 261 260 256 258 260 255 243 219 214 215 207 208 212 217 220 223 224 219 212 227 232 234 237 239 247 254 254 260 262 268 277 282 286 290
237 241 244 245 245 250 255 257 259 261 264 262 253 255 253 242 223 213 203 206 205 206 213 216 221 225 226 225 214 220 230 236 244 245 247 254 252 259 265 265 272 271 277 281
236 239 244 244 248 251 253 256 261 265 266 262 251 245 242 224 207 203 203 207 205 209 213 214 219 223 224 221 216 219 226 232 236 245 248 249 249 251 259 263 269 270 272 275
235 239 243 247 248 249 253 259 263 263 261 253 246 233 223 205 200 199 208 206 207 212 215 217 221 225 227 224 223 224 228 229 233 240 247 249 248 248 250 256 263 264 264 269
234 238 241 244 245 248 255 259 259 261 256 250 236 217 211 198 200 204 211 210 209 213 217 218 223 218 222 215 220 227 228 228 229 234 241 245 247 250 255 261 260 260 261 266
234 238 241 245 249 251 253 254 257 254 247 238 214 204 201 200 208 212 208 213 216 215 219 218 219 219 225 228 224 224 227 232 238 241 248 251 256 258 260 260 255 260 263 265
234 237 238 241 244 247 249 252 251 247 238 223 205 197 198 198 208 216 214 213 213 218 218 220 225 225 224 226 226 228 233 237 239 241 245 252 252 257 262 263 262 266 271 271
234 236 238 239 243 246 248 248 249 245 232 212 200 195 197 204 203 213 222 220 220 219 218 219 221 222 229 229 228 231 235 236 241 245 249 249 253 257 259 261 262 266 269 272
233 236 238 239 241 243 246 244 243 238 224 208 197 200 199 203 206 215 222 230 227 224 221 217 216 219 218 228 235 235 234 237 240 243 250 250 254 259 261 260 262 267 269 272
230 232 235 235 237 239 242 239 234 230 218 208 198 200 202 205 210 213 214 220 230 229 226 221 219 219 225 223 235 232 238 239 238 242 246 250 254 257 259 262 265 268 269 270
229 230 231 232 233 235 235 234 230 225 214 206 199 201 206 210 209 213 219 219 222 228 227 231 230 232 229 232 232 227 232 235 239 239 245 249 255 259 261 263 266 268 269 270
228 230 230 231 232 233 231 235 227 221 213 206 197 201 208 212 216 221 222 225 222 220 227 229 234 234 234 236 238 235 234 237 242 243 249 251 256 258 259 260 265 266 268 269
226 229 231 229 230 232 233 236 228 223 216 211 201 203 210 216 218 223 226 228 226 224 225 229 233 233 233 233 235 239 243 246 247 250 251 253 255 257 258 263 267 267 266 265
227 228 231 234 233 236 236 232 235 226 223 215 210 210 215 219 224 224 225 227 231 230 230 233 232 233 238 243 245 248 251 255 258 260 260 262 264 265 266 268 267 266 264 265
229 231 231 234 235 236 235 233 234 229 225 221 217 216 217 221 225 230 231 229 231 232 233 235 237 239 240 243 245 247 250 252 253 255 257 260 261 263 266 267 265 267 271 271
Height
10522 10537 10554 10544 10549 10562 10566 10571 10578 10580 10581 10585 10590 10605 10606 10605 10601 10602 10601 10602 10602 10600 10598 10599 10603 10602 10601 10604 10608 10614 10619 10623 10625 10626 10624 10620 10617 10613 10607 10601 10602 10607 10611 10616
10506 10525 10522 10525 10534 10541 10549 10555 10561 10565 10563 10567 10574 10594 10594 10588 10587 10584 10586 10586 10584 10585 10585 10585 10584 10586 10587 10594 10600 10606 10611 10616 10617 10619 10618 10615 10613 10610 10601 10596 10594 10599 10604 10609
10489 10500 10503 10509 10516 10525 10531 10539 10543 10546 10548 10553 10560 10580 10580 10572 10568 10563 10568 10569 10565 10568 10570 10570 10570 10570 10574 10584 10590 10598 10604 10608 10610 10613 10611 10610 10608 10604 10598 10593 10590 10591 10597 10602
10469 10480 10484 10492 10499 10505 10515 10519 10524 10530 10533 10538 10541 10565 10565 10556 10550 10547 10547 10549 10550 10551 10554 10554 10554 10558 10563 10573 10582 10590 10595 10600 10603 10606 10605 10605 10603 10600 10595 10591 10588 10585 10587 10592
10449 10457 10466 10474 10481 10489 10498 10498 10507 10513 10516 10523 10530 10525 10559 10537 10536 10525 10527 10536 10538 10535 10538 10539 10542 10544 10553 10567 10575 10582 10587 10592 10596 10599 10599 10600 10598 10595 10593 10589 10584 10582 10581 10582
10432 10441 10448 10455 10463 10471 10477 10482 10488 10495 10500 10512 10507 10508 10539 10519 10516 10512 10512 10522 10522 10519 10524 10527 10532 10537 10549 10557 10566 10573 10579 10584 10589 10591 10593 10593 10593 10591 10589 10586 10583 10579 10577 10576
10415 10423 10429 10439 10445 10451 10460 10468 10472 10477 10484 10494 10490 10502 10507 10499 10498 10506 10496 10505 10504 10507 10512 10517 10525 10530 10539 10549 10557 10566 10571 10576 10582 10584 10586 10587 10588 10587 10586 10583 10581 10578 10575 10573
10402 10410 10416 10424 10430 10438 10446 10454 10455 10463 10469 10475 10476 10483 10488 10483 10483 10488 10489 10488 10492 10498 10503 10510 10517 10525 10534 10544 10551 10558 10563 10569 10574 10577 10579 10581 10582 10583 10581 10580 10578 10576 10573 10570
10388 10397 10400 10408 10416 10423 10433 10438 10442 10447 10452 10460 10462 10465 10471 10467 10469 10470 10477 10476 10484 10491 10498 10503 10510 10519 10529 10538 10542 10550 10556 10562 10566 10569 10572 10574 10575 10576 10576 10576 10575 10573 10572 10569
10374 10379 10387 10394 10401 10410 10416 10421 10426 10430 10438 10445 10450 10453 10454 10454 10454 10459 10463 10469 10477 10484 10491 10496 10503 10510 10519 10530 10537 10544 10548 10554 10558 10561 10565 10567 10568 10569 10570 10570 10570 10568 10568 10567
10360 10368 10376 10381 10389 10397 10399 10406 10412 10417 10424 10431 10438 10441 10439 10442 10442 10451 10454 10462 10472 10477 10483 10490 10497 10503 10513 10523 10529 10536 10541 10547 10551 10555 10558 10558 10560 10561 10563 10563 10564 10563 10562 10562
10346 10354 10360 10368 10376 10379 10386 10393 10399 10404 10411 10419 10424 10430 10427 10430 10432 10442 10448 10457 10465 10472 10478 10484 10489 10497 10507 10515 10521 10529 10535 10539 10542 10545 10548 10550 10550 10552 10555 10556 10557 10557 10557 10557
10331 10339 10347 10354 10361 10365 10372 10381 10385 10392 10400 10405 10414 10417 10415 10421 10427 10435 10441 10449 10457 10465 10473 10479 10482 10489 10498 10508 10514 10520 10526 10531 10534 10537 10539 10540 10543 10545 10548 10548 10548 10549 10550 10550
10318 10325 10333 10341 10349 10355 10361 10367 10373 10381 10388 10396 10400 10403 10404 10412 10418 10428 10436 10442 10449 10458 10465 10472 10478 10483 10490 10499 10506 10511 10516 10520 10524 10526 10527 10530 10534 10537 10539 10540 10540 10542 10542 10542
10305 10312 10318 10327 10336 10343 10349 10352 10363 10369 10376 10382 10385 10389 10393 10402 10413 10423 10430 10436 10442 10450 10458 10464 10470 10477 10483 10492 10498 10502 10506 10509 10513 10515 10516 10519 10524 10526 10527 10530 10532 10533 10533 10533
10293 10301 10307 10313 10322 10332 10336 10345 10350 10357 10364 10369 10373 10378 10385 10395 10405 10416 10423 10430 10436 10444 10452 10459 10464 10468 10474 10481 10486 10490 10495 10498 10500 10503 10505 10507 10511 10514 10517 10520 10521 10521 10522 10523
10282 10291 10300 10305 10314 10321 10326 10332 10339 10344 10350 10357 10362 10368 10377 10389 10400 10408 10416 10423 10431 10437 10445 10450 10454 10459 10464 10470 10474 10478 10481 10484 10490 10493 10496 10498 10501 10502 10504 10507 10508 10509 10510 10509
10270 10278 10287 10294 10302 10308 10311 10321 10327 10332 10339 10347 10354 10363 10373 10383 10394 10400 10408 10417 10423 10429 10433 10439 10442 10447 10454 10459 10463 10467 10471 10475 10480 10483 10486 10488 10489 10490 10491 10491 10493 10494 10494 10495
10259 10267 10274 10282 10288 10295 10301 10309 10314 10321 10328 10336 10347 10356 10367 10378 10387 10393 10397 10404 10409 10414 10420 10425 10430 10434 10439 10444 10448 10454 10460 10465 10469 10472 10474 10476 10477 10478 10479 10478 10479 10480 10480 10479
10250 10257 10263 10271 10278 10285 10287 10295 10303 10309 10318 10328 10339 10348 10359 10368 10376 10383 10387 10388 10392 10400 10408 10411 10417 10421 10426 10431 10435 10439 10444 10450 10454 10457 10460 10461 10463 10464 10464 10464 10465 10466 10466 10465
10241 10246 10251 10261 10268 10272 10274 10282 10291 10300 10307 10319 10330 10338 10347 10356 10361 10366 10369 10371 10375 10379 10392 10399 10404 10408 10413 10417 10421 10427 10432 10437 10439 10442 10444 10446 10448 10449 10449 10449 10449 10449 10450 10450
10232 10237 10244 10251 10256 10256 10265 10272 10282 10288 10297 10308 10318 10327 10333 10338 10341 10350 10353 10354 10361 10368 10379 10383 10393 10398 10402 10405 10409 10414 10419 10423 10425 10427 10429 10431 10432 10432 10432 10433 10432 10432 10432 10433
10224 10229 10234 10239 10243 10245 10254 10261 10270 10277 10285 10295 10304 10312 10317 10323 10331 10332 10331 10337 10347 10354 10359 10368 10375 10380 10386 10391 10395 10401 10405 10408 10410 10412 10414 10415 10415 10416 10415 10415 10415 10414 10414 10413
10216 10219 10222 10227 10232 10236 10247 10252 10259 10266 10273 10284 10292 10298 10303 10304 10309 10315 10326 10330 10336 10343 10349 10356 10362 10369 10372 10376 10378 10381 10385 10389 10391 10392 10393 10394 10395 10396 10397 10398 10397 10395 10395 10395
10203 10208 10212 10214 10223 10228 10237 10243 10246 10254 10261 10271 10278 10284 10285 10290 10294 10300 10303 10313 10321 10328 10334 10339 10344 10351 10356 10360 10363 10365 10367 10368 10370 10372 10374 10375 10375 10375 10376 10377 10376 10376 10374 10374
10194 10197 10199 10204 10215 10220 10227 10232 10234 10241 10248 10255 10261 10263 10271 10278 10282 10285 10295 10305 10310 10313 10318 10322 10327 10332 10337 10340 10343 10345 10348 10349 10350 10351 10352 10354 10355 10354 10354 10356 10355 10354 10353 10351